TimeCST,TemperatureF,Dew PointF,Humidity,Sea Level PressureIn,VisibilityMPH,Wind Direction,Wind SpeedMPH,Gust SpeedMPH,PrecipitationIn,Events,Conditions,WindDirDegrees,DateUTC
12:15 AM,25.3,18.3,75,30.16,10.0,SSE,11.5,-,N/A,,Clear,160,2012-12-22 06:15:00
12:35 AM,24.6,18.0,76,30.15,10.0,SSE,8.1,-,N/A,,Clear,150,2012-12-22 06:35:00
12:55 AM,23.9,17.6,77,30.15,10.0,SSE,6.9,-,N/A,,Clear,150,2012-12-22 06:55:00
1:15 AM,24.1,18.0,77,30.14,10.0,SSE,9.2,-,N/A,,Clear,150,2012-12-22 07:15:00
1:35 AM,24.4,17.6,75,30.13,10.0,SE,9.2,-,N/A,,Clear,140,2012-12-22 07:35:00
1:55 AM,24.3,17.6,76,30.13,10.0,SE,6.9,-,N/A,,Clear,140,2012-12-22 07:55:00
2:15 AM,23.5,17.6,78,30.12,10.0,SE,6.9,-,N/A,,Clear,140,2012-12-22 08:15:00
2:35 AM,22.8,17.2,79,30.11,10.0,SE,8.1,-,N/A,,Clear,140,2012-12-22 08:35:00
2:55 AM,22.8,17.2,79,30.11,10.0,SSE,8.1,-,N/A,,Clear,150,2012-12-22 08:55:00
3:15 AM,22.6,17.1,79,30.11,10.0,SSE,6.9,-,N/A,,Clear,150,2012-12-22 09:15:00
3:35 AM,23.0,17.1,78,30.10,10.0,SE,6.9,-,N/A,,Clear,140,2012-12-22 09:35:00
3:55 AM,23.2,16.9,77,30.10,10.0,SE,6.9,-,N/A,,Clear,140,2012-12-22 09:55:00
4:15 AM,23.5,16.7,75,30.09,10.0,SSE,6.9,-,N/A,,Clear,150,2012-12-22 10:15:00
4:35 AM,23.9,17.1,75,30.08,10.0,SSE,10.4,-,N/A,,Clear,150,2012-12-22 10:35:00
4:55 AM,24.4,17.2,74,30.06,10.0,SSE,11.5,-,N/A,,Clear,150,2012-12-22 10:55:00
5:15 AM,24.6,17.2,74,30.06,10.0,SSE,10.4,-,N/A,,Clear,150,2012-12-22 11:15:00
5:35 AM,24.3,17.2,75,30.06,10.0,SSE,9.2,-,N/A,,Clear,150,2012-12-22 11:35:00
5:55 AM,24.4,17.6,75,30.05,10.0,SSE,10.4,-,N/A,,Clear,150,2012-12-22 11:55:00
6:15 AM,24.6,17.4,74,30.05,10.0,SSE,11.5,-,N/A,,Clear,150,2012-12-22 12:15:00
6:35 AM,24.6,17.2,74,30.04,10.0,SSE,11.5,-,N/A,,Clear,150,2012-12-22 12:35:00
6:55 AM,24.6,17.2,74,30.04,10.0,SSE,10.4,-,N/A,,Clear,160,2012-12-22 12:55:00
7:15 AM,24.8,17.2,73,30.04,10.0,SSE,11.5,-,N/A,,Clear,150,2012-12-22 13:15:00
7:35 AM,24.1,17.2,75,30.05,10.0,SSE,11.5,-,N/A,,Clear,150,2012-12-22 13:35:00
7:55 AM,23.7,17.2,76,30.04,10.0,SSE,10.4,-,N/A,,Clear,160,2012-12-22 13:55:00
8:15 AM,24.3,17.2,75,30.03,10.0,SSE,9.2,-,N/A,,Clear,160,2012-12-22 14:15:00
8:35 AM,24.8,17.2,73,30.02,10.0,SSE,10.4,-,N/A,,Clear,160,2012-12-22 14:35:00
8:55 AM,25.9,17.6,71,30.00,10.0,SSE,11.5,-,N/A,,Clear,150,2012-12-22 14:55:00
9:15 AM,27.0,18.1,69,30.01,10.0,SSE,11.5,-,N/A,,Clear,150,2012-12-22 15:15:00
9:35 AM,27.7,18.5,68,30.00,10.0,SSE,9.2,-,N/A,,Clear,150,2012-12-22 15:35:00
9:55 AM,28.4,18.9,67,30.00,10.0,SSE,6.9,-,N/A,,Clear,160,2012-12-22 15:55:00
10:15 AM,29.3,19.2,66,30.00,10.0,SSE,9.2,-,N/A,,Clear,160,2012-12-22 16:15:00
10:35 AM,29.1,19.9,69,30.00,10.0,South,9.2,-,N/A,,Clear,180,2012-12-22 16:35:00
10:55 AM,29.8,21.2,70,29.99,10.0,South,11.5,-,N/A,,Clear,180,2012-12-22 16:55:00
11:15 AM,30.9,21.7,69,29.99,10.0,South,5.8,-,N/A,,Clear,180,2012-12-22 17:15:00
11:35 AM,32.0,21.9,66,29.98,10.0,South,3.5,-,N/A,,Clear,170,2012-12-22 17:35:00
11:55 AM,32.4,22.8,68,29.96,10.0,South,5.8,-,N/A,,Clear,180,2012-12-22 17:55:00
12:15 PM,33.4,23.5,67,29.96,10.0,South,5.8,-,N/A,,Clear,180,2012-12-22 18:15:00
12:35 PM,34.3,24.3,67,29.94,10.0,SSW,4.6,-,N/A,,Clear,200,2012-12-22 18:35:00
12:55 PM,34.7,25.0,68,29.93,10.0,South,6.9,-,N/A,,Clear,170,2012-12-22 18:55:00
1:15 PM,35.4,26.2,69,29.93,10.0,South,5.8,-,N/A,,Clear,180,2012-12-22 19:15:00
1:35 PM,35.8,26.6,69,29.92,10.0,SSW,5.8,-,N/A,,Clear,200,2012-12-22 19:35:00
1:55 PM,36.5,27.1,69,29.92,10.0,WSW,5.8,-,N/A,,Clear,240,2012-12-22 19:55:00
2:15 PM,36.5,26.8,68,29.91,10.0,Calm,Calm,-,N/A,,Clear,0,2012-12-22 20:15:00
2:35 PM,36.5,27.1,69,29.91,10.0,West,3.5,-,N/A,,Clear,260,2012-12-22 20:35:00
2:55 PM,36.5,28.0,71,29.91,10.0,Calm,Calm,-,N/A,,Clear,0,2012-12-22 20:55:00
3:15 PM,35.6,27.1,71,29.91,10.0,Calm,Calm,-,N/A,,Clear,0,2012-12-22 21:15:00
3:35 PM,35.6,27.3,72,29.91,10.0,WNW,5.8,-,N/A,,Clear,290,2012-12-22 21:35:00
3:55 PM,35.1,26.4,71,29.91,10.0,West,3.5,-,N/A,,Clear,280,2012-12-22 21:55:00
4:15 PM,32.9,26.6,78,29.92,10.0,NW,6.9,-,N/A,,Clear,310,2012-12-22 22:15:00
4:35 PM,31.5,24.8,76,29.94,10.0,NW,8.1,-,N/A,,Clear,310,2012-12-22 22:35:00
4:55 PM,30.2,24.3,79,29.94,10.0,WNW,4.6,-,N/A,,Clear,300,2012-12-22 22:55:00
5:15 PM,29.3,23.9,80,29.95,10.0,WNW,5.8,-,N/A,,Clear,300,2012-12-22 23:15:00
5:35 PM,28.6,23.5,81,29.95,10.0,WNW,6.9,-,N/A,,Clear,300,2012-12-22 23:35:00
5:55 PM,27.7,23.0,83,29.96,10.0,WNW,4.6,-,N/A,,Clear,300,2012-12-22 23:55:00
6:15 PM,27.1,22.8,84,29.96,10.0,NW,8.1,-,N/A,,Clear,310,2012-12-23 00:15:00
6:35 PM,27.3,22.8,83,29.97,10.0,NW,5.8,-,N/A,,Clear,320,2012-12-23 00:35:00
6:55 PM,26.6,22.6,85,29.97,10.0,NW,6.9,-,N/A,,Clear,310,2012-12-23 00:55:00
7:15 PM,27.0,23.0,85,29.96,10.0,NNW,8.1,-,N/A,,Clear,340,2012-12-23 01:15:00
7:35 PM,27.0,22.5,83,29.97,10.0,NNW,4.6,-,N/A,,Clear,330,2012-12-23 01:35:00
7:55 PM,26.6,22.5,84,29.97,10.0,NNW,6.9,-,N/A,,Clear,340,2012-12-23 01:55:00
8:15 PM,27.3,23.0,84,29.98,10.0,NNW,6.9,-,N/A,,Clear,330,2012-12-23 02:15:00
8:35 PM,26.4,22.6,86,29.99,10.0,NNW,8.1,-,N/A,,Clear,330,2012-12-23 02:35:00
8:55 PM,25.7,22.1,86,29.99,10.0,NNW,6.9,-,N/A,,Clear,330,2012-12-23 02:55:00
9:15 PM,25.0,21.7,87,30.00,7.0,NNW,6.9,-,N/A,,Clear,330,2012-12-23 03:15:00
9:35 PM,24.8,21.6,87,30.00,7.0,NNW,6.9,-,N/A,,Clear,330,2012-12-23 03:35:00
9:55 PM,23.9,21.0,89,30.00,7.0,NNW,5.8,-,N/A,,Clear,330,2012-12-23 03:55:00
10:15 PM,23.2,20.3,89,30.00,7.0,NNW,5.8,-,N/A,,Clear,330,2012-12-23 04:15:00
10:35 PM,22.6,20.1,90,30.00,7.0,NNW,3.5,-,N/A,,Clear,340,2012-12-23 04:35:00
10:55 PM,23.0,20.1,89,30.00,7.0,North,5.8,-,N/A,,Clear,350,2012-12-23 04:55:00
11:15 PM,21.9,19.4,90,30.00,7.0,NNW,5.8,-,N/A,,Clear,340,2012-12-23 05:15:00
11:35 PM,22.8,19.0,85,30.00,10.0,North,8.1,16.1,N/A,,Clear,350,2012-12-23 05:35:00
11:55 PM,22.1,18.3,85,30.00,7.0,North,8.1,-,N/A,,Clear,350,2012-12-23 05:55:00